Flag for Germany Weather past 2 weeks in Lahr, Baden-Württemberg, Germany

Now
72 °F

Overcast.


Feels Like: 73 °F
Forecast: 54 / 73 °F
Wind: 2 mph from South

Location: Lahr

Current Time: Aug 29, 2014 at 2:46:16 PM

Latest Report: Aug 29, 2014 at 2:00 PM


Visibility: 38 mi

Pressure: 30.04 "Hg

Humidity: 79%

Dew point: 65 °F

Location of LahrLocation

Historic Weather in Lahr — Graph

°F

Lahr temperature yesterday

Maximum temperature yesterday: 77 °F (at 6:00 PM)
Minimum temperature yesterday: 53 °F (at 7:00 AM)
Average temperature yesterday: 65 °F

Past Weeks' High & Low Weather Summary

 TemperatureHumidityPressure
High77 °F (Aug 28, 6:00 PM)100% (Aug 19, 6:00 AM)30.19 "Hg (Aug 19, 6:00 AM)
Low48 °F (Aug 25, 1:00 AM)43% (Aug 21, 5:00 PM)29.71 "Hg (Aug 26, 4:00 PM)
Average61 °F80%30.00 "Hg
* Reported Aug 14 1:00 PM — Aug 29 1:00 PM, Lahr, Weather by CustomWeather, © 2014

Note: Actual official high and low records may vary slightly from our data, if they occured in-between our weather recording intervals... More about our weather records

Advertising

Lahr weather history for previous 24 hours

 ConditionsComfort  
Time TempWeatherWind HumidityBarometerVisibility
1:00 PM
Aug 29
72 °FPartly sunny.2 mph78%30.05 "Hg22 mi
12:00 PM69 °FPartly sunny.1 mph85%30.06 "Hg31 mi
11:00 AM67 °FLow clouds.2 mph87%30.06 "Hg25 mi
10:00 AM65 °FLow clouds.2 mph93%30.06 "Hg34 mi
9:00 AM63 °FOvercast.2 mph99%30.06 "Hg31 mi
8:00 AM62 °FLight rain. Low clouds.3 mph99%30.06 "Hg8 mi
7:00 AM63 °FRain. Overcast.2 mph95%30.05 "Hg7 mi
6:00 AM62 °FLight rain. Overcast.1 mph98%30.03 "Hg22 mi
5:00 AM62 °FLight rain. Overcast.1 mph97%30.04 "Hg14 mi
4:00 AM62 °FOvercast.1 mph95%30.04 "Hg25 mi
3:00 AM61 °FPassing clouds.1 mph92%30.03 "Hg25 mi
2:00 AM63 °FPassing clouds.1 mph91%30.04 "Hg25 mi
1:00 AM64 °FPassing clouds.2 mph88%30.03 "Hg31 mi
12:00 AM66 °FOvercast.1 mph83%30.03 "Hg43 mi
11:00 PM
Aug 28
67 °FPassing clouds.2 mph78%30.02 "Hg43 mi
10:00 PM68 °FOvercast.2 mph77%30.01 "Hg43 mi
9:00 PM67 °FPassing clouds.1 mph84%30.00 "Hg40 mi
8:00 PM73 °FPartly sunny.1 mph66%29.99 "Hg40 mi
7:00 PM75 °FPartly sunny.1 mph59%29.99 "Hg47 mi
6:00 PM77 °FOvercast.1 mph54%30.00 "Hg47 mi
5:00 PM76 °FOvercast.2 mph57%30.00 "Hg43 mi
4:00 PM75 °FOvercast.3 mph59%30.01 "Hg47 mi
3:00 PM75 °FPartly sunny.2 mph58%30.02 "Hg47 mi
2:00 PM72 °FPartly sunny.2 mph64%30.04 "Hg40 mi
Weather by CustomWeather, © 2014

See weather overviewHow to use our weather pages